Regional Weather Roundup
Issued by NWS

Home | Current Version | Previous Version | Graphics & Text | Print | Product List | Glossary On
Versions: 1 2 3 4 5 6 7 8 9 10 11 12 13 14 15 16 17 18 19 20 21 22 23 24 25 26 27 28 29 30 31 32 33 34 35 36 37 38 39 40 41 42 43 44 45 46 47 48 49 50
000
ASUS43 KLMK 050102
RWRKY
KENTUCKY REGIONAL WEATHER ROUNDUP
NATIONAL WEATHER SERVICE LOUISVILLE KY
800 PM EST SUN DEC 04 2016

NOTE "FAIR" INDICATES FEW OR NO CLOUDS BELOW 12,000 FEET
WITH NO SIGNIFICANT WEATHER AND/OR OBSTRUCTIONS TO VISIBILITY.

KYZ001>023-026-027-061>063-070>075-050200-
WESTERN AND SOUTH CENTRAL KENTUCKY

CITY           SKY/WX    TMP DP  RH WIND       PRES   REMARKS
PADUCAH        CLOUDY    44  38  79 NW8       30.01R
HENDERSON      CLOUDY    43  36  75 W15       29.99R
OWENSBORO      CLOUDY    44  41  89 W12       29.98R
HOPKINSVILLE   CLOUDY    45  45 100 SW7       29.99R
BOWLING GREEN  CLOUDY    47  44  90 SW6       29.98S
GLASGOW        NOT AVBL
$$

KYZ024-025-028>034-038-045-046-053-050200-
NORTH CENTRAL KENTUCKY

CITY           SKY/WX    TMP DP  RH WIND       PRES   REMARKS
LOUISVILLE/SDF CLOUDY    47  43  86 W12       29.93R
LOUISVILLE/LOU CLOUDY    47  44  90 SW7       29.93R
FORT KNOX      CLOUDY    45  44  97 SW12      29.92R
$$

KYZ035>037-039>044-047>052-055>060-089>105-050200-
NORTHEAST KENTUCKY

CITY           SKY/WX    TMP DP  RH WIND       PRES   REMARKS
LEXINGTON      LGT RAIN  45  43  93 SW10      29.91S FOG
COVINGTON      LGT RAIN  42  41  96 S8        29.87F FOG
FRANKFORT      LGT RAIN  46  43  89 SW10      29.90S
$$

KYZ054-064>069-076>088-106>120-050200-
SOUTHEAST KENTUCKY

CITY           SKY/WX    TMP DP  RH WIND       PRES   REMARKS
JACKSON        LGT RAIN  43  41  93 SW3       29.92R VSB 1/2
LONDON         LGT RAIN  46  43  89 SW6       29.95R FOG
SOMERSET       DRIZZLE   45  45 100 SW6       29.98R
MIDDLESBORO    DRIZZLE   46  45  97 CALM      29.99R
MONTICELLO     LGT RAIN  47  46  97 W15       29.99R FOG
$$




USA.gov is the U.S. government's official web portal to all federal, state and local government web resources and services.